This is the latest recevied weather packets stored in our database for station/object SR5NLK-1. If no packets are shown the sender has not sent any weather packets the latest 10 day(s).
| Time | Temp. | Humidity | Pressure | Rain* | Wind** | Luminosity | Snow |
|---|---|---|---|---|---|---|---|
| 1778079150 | 27.78° C | 36% | 974.8 hPa | 0 mm | - | - | - |
| 1778078850 | 28.33° C | 35% | 933.7 hPa | 0 mm | - | - | - |
| 1778078550 | 28.89° C | 35% | 959.7 hPa | 0 mm | - | - | - |
| 1778078250 | 28.33° C | 35% | 977.3 hPa | 0 mm | - | - | - |
| 1778078189 | 28.33° C | 35% | 1036.6 hPa | 0 mm | - | - | - |
| 1778077950 | 28.33° C | 35% | 1014.3 hPa | 0 mm | - | - | - |
| 1778077650 | 27.78° C | 36% | 932.8 hPa | 0 mm | - | - | - |
| 1778077350 | 27.22° C | 36% | 1094.1 hPa | 0 mm | - | - | - |
| 1778077050 | 27.78° C | 35% | 1006.6 hPa | 0 mm | - | - | - |
| 1778076750 | 27.78° C | 35% | 914.2 hPa | 0 mm | - | - | - |
| 1778076451 | 28.89° C | 34% | 1023.3 hPa | 0 mm | - | - | - |
| 1778076209 | 28.89° C | 34% | 962.3 hPa | 0 mm | - | - | - |
| 1778076150 | 28.89° C | 34% | 1016.7 hPa | 0 mm | - | - | - |
| 1778075850 | 29.44° C | 34% | 957.5 hPa | 0 mm | - | - | - |
| 1778075550 | 28.89° C | 34% | 1055.4 hPa | 0 mm | - | - | - |
| 1778075250 | 28.89° C | 35% | 913.3 hPa | 0 mm | - | - | - |
| 1778074950 | 28.33° C | 35% | 1054.6 hPa | 0 mm | - | - | - |
| 1778074650 | 27.78° C | 36% | 994.7 hPa | 0 mm | - | - | - |
| 1778074350 | 27.78° C | 36% | 1041.8 hPa | 0 mm | - | - | - |
| 1778074229 | 27.78° C | 36% | 1022.6 hPa | 0 mm | - | - | - |
| 1778074050 | 27.78° C | 35% | 1013.1 hPa | 0 mm | - | - | - |
| 1778073750 | 27.78° C | 35% | 1016.6 hPa | 0 mm | - | - | - |
| 1778073450 | 28.33° C | 35% | 1059.3 hPa | 0 mm | - | - | - |
| 1778073151 | 27.78° C | 35% | 962 hPa | 0 mm | - | - | - |
| 1778072850 | 27.78° C | 35% | 1015.2 hPa | 0 mm | - | - | - |
* Rain latest hour (hover to see other rain measurements)
** Current wind speed in m/s (hover to see current wind gust speed)